Volver al catálogo

STARLINK-32182

ActivoComunicacionesVLEO
NORAD 60319·PAYLOAD·🇺🇸 United States

Lanzado Jul 28, 2024 desde Vandenberg Space Force Base

Loading…

Próximos Pases (próximas 24 horas)

TLE

ActualizadoSource: CelesTrak SupGP

Época: Sep 14, 2026, 21:18 UTC

1 60319C 24133U   26257.88798611 -.00049160  00000+0 -14525-2 0  2579
2 60319  53.1569 135.8017 0001162  97.4473 210.8253 15.34415262    14

Sigue STARLINK-32182 en tiempo real con AllMySat

Download on the App Store